This demonstration page uses our WeatherBlox Daily Observations layout. Learn more.

Left ArrowRight Arrow

34.02893, -84.19858

Hourly Observations for August 28, 2015

Temp ( °F °C ) Dew Point ( °F °C ) Humidity (%) Winds ( mph kmh ) Pressure ( in mb ) Visibility ( mi km ) Precip ( " mm )
12:53 am 00:53 Clear 73 22.8 66 18.9 79 79 Calm 30.02 1017 10 16 0.00 0.00
1:53 am 01:53 Clear 72 22.2 66 18.9 82 82 VRB 3 6 30.02 1017 10 16 0.00 0.00
2:53 am 02:53 Mostly Clear 71 21.7 66 18.9 84 84 VRB 3 6 30.01 1016 10 16 0.00 0.00
3:53 am 03:53 Clear 70 21.1 66 18.9 87 87 ENE 5 7 30.02 1017 10 16 0.00 0.00
4:53 am 04:53 Clear 70 21.1 66 18.9 87 87 VRB 3 6 30.03 1017 9 14 0.00 0.00
5:53 am 05:53 Mostly Clear 69 20.6 67 19.4 93 93 Calm 30.03 1017 8 13 0.00 0.00
6:25 am 06:25 Mostly Cloudy 69 20.6 67 19.4 93 93 VRB 3 6 30.06 1018 8 13 0.00 0.00
6:37 am 06:37 Mostly Cloudy 70 21.1 68 20 93 93 Calm 30.06 1018 8 13 0.00 0.00
6:53 am 06:53 Cloudy 70 21.1 68 20 93 93 E 5 7 30.06 1018 8 13 0.00 0.00
7:53 am 07:53 Cloudy with Mist and Fog 70 21.1 69 20.6 97 97 E 5 7 30.08 1019 5 8 0.00 0.00
8:53 am 08:53 Cloudy with Mist and Fog 71 21.7 69 20.6 94 94 VRB 5 7 30.11 1020 5 8 0.00 0.00
9:53 am 09:53 Cloudy with Mist and Fog 71 21.7 69 20.6 94 94 VRB 5 7 30.13 1020 5 8 0.00 0.00
10:53 am 10:53 Cloudy with Mist and Fog 71 21.7 69 20.6 94 94 E 6 9 30.15 1021 5 8 0.00 0.00
11:48 am 11:48 Cloudy 75 24 70 21 83 83 VRB 5 7 30.15 1021 7 11 0.00 0.00
11:53 am 11:53 Mostly Cloudy 77 25 69 20.6 77 77 VRB 7 11 30.16 1021 8 13 0.00 0.00
12:00 pm 12:00 Mostly Cloudy 75 24 70 21 83 83 VRB 7 11 30.18 1022 9 14 0.00 0.00
12:07 pm 12:07 Cloudy 75 23.9 68 20 79 79 VRB 5 7 30.18 1022 9 14 0.00 0.00
12:53 pm 12:53 Cloudy 77 25 68 20 74 74 VRB 7 11 30.14 1021 10 16 0.00 0.00
1:05 pm 13:05 Cloudy 79 26.1 68 20 69 69 E 9 15 30.12 1020 10 16 0.00 0.00
1:53 pm 13:53 Partly Cloudy 79 26.1 67 19.4 67 67 E 8 13 30.12 1020 10 16 0.00 0.00
2:53 pm 14:53 Partly Cloudy 81 27.2 67 19.4 62 62 E 8 13 30.10 1019 10 16 0.00 0.00
3:53 pm 15:53 Partly Cloudy 81 27.2 67 19.4 62 62 ESE 5 7 30.07 1018 10 16 0.00 0.00
4:53 pm 16:53 Mostly Sunny 83 28.3 67 19.4 59 59 VRB 7 11 30.06 1018 10 16 0.00 0.00
5:53 pm 17:53 Mostly Sunny 81 27.2 68 20 65 65 ESE 6 9 30.06 1018 10 16 0.00 0.00
6:53 pm 18:53 Sunny 79 26.1 67 19.4 67 67 ESE 5 7 30.06 1018 10 16 0.00 0.00
7:53 pm 19:53 Sunny 78 25.6 68 20 71 71 ESE 5 7 30.07 1018 10 16 0.00 0.00
8:53 pm 20:53 Clear 76 24.4 68 20 77 77 VRB 5 7 30.09 1019 10 16 0.00 0.00
9:53 pm 21:53 Partly Cloudy 75 23.9 69 20.6 82 82 SE 3 6 30.12 1020 10 16 0.00 0.00
10:53 pm 22:53 Clear 75 23.9 68 20 79 79 Calm 30.13 1020 10 16 0.00 0.00
11:53 pm 23:53 Clear 74 23.3 68 20 82 82 Calm 30.13 1020 10 16 0.00 0.00

Powered by AerisWeather